Location: Unspecified
(0.0000°N, 0.0000°E)
Time: 16:15:37
(UTC+00:00)

Vanguard 1 Rocket - Pass Details

Date: 23 January 2020
Orbit: 650 x 4226 km, 34.3° (Epoch: 24 February)

Event Time Altitude Azimuth Distance (km) Brightness Sun altitude
Rises 22:26:52 0° 258° (WSW) 7,955 12.6 -57.8°
Reaches altitude 10° 22:37:37 10° 236° (SW) 6,129 11.9 -59.8°
Maximum altitude 22:45:18 14° 210° (SSW) 5,041 11.4 -61.3°
Drops below altitude 10° 22:51:21 10° 183° (S) 4,643 11.2 -62.3°
Sets 22:57:07 0° 157° (SSE) 4,899 11.3 -63.3°
